FW2834 Weather Reports


Display with metric or nautical units.
time (UTC)temp
F
wind
direction
speed
MPH
gust
MPH
rain 1hr
in
rain 24hr
in
rain mn
in
humidity
%
barometer
mb
20260504003058 58 51 0.0 2.0 0.00 0.00 0.00 40 1012.4
20260504002558 58 51 0.0 2.0 0.00 0.00 0.00 40 1012.4
20260504002058 58 51 0.0 1.0 0.00 0.00 0.00 39 1012.4
20260504001607 58 51 0.0 1.0 0.00 0.00 0.00 38 1012.2
20260504001057 58 51 0.0 1.0 0.00 0.00 0.00 38 1012.1
20260504000558 59 51 0.0 1.0 0.00 0.00 0.00 38 1012.0
20260504000057 59 51 0.0 0.0 0.00 0.00 0.00 38 1011.9
20260503235557 59 51 0.0 2.0 0.00 0.00 0.00 37 1012.1
20260503235057 59 51 0.0 3.0 0.00 0.00 0.00 39 1012.0
20260503234557 59 51 0.0 4.0 0.00 0.00 0.00 36 1012.1
20260503234057 59 163 0.0 2.0 0.00 0.00 0.00 36 1011.9
20260503233556 59 163 0.0 9.0 0.00 0.00 0.00 36 1012.1
20260503233057 60 180 1.0 9.0 0.00 0.00 0.00 36 1012.2
20260503232555 60 139 0.0 4.0 0.00 0.00 0.00 35 1012.2
20260503232053 60 95 0.0 6.0 0.00 0.00 0.00 35 1012.6
20260503231555 60 100 1.0 6.0 0.00 0.00 0.00 35 1012.7
20260503231052 60 123 0.0 3.0 0.00 0.00 0.00 36 1012.8
20260503230551 60 123 0.0 3.0 0.00 0.00 0.00 35 1012.8
20260503230057 60 190 0.0 3.0 0.00 0.00 0.00 35 1012.9
20260503225548 60 176 0.0 3.0 0.00 0.00 0.00 34 1013.2
20260503225048 60 236 0.0 5.0 0.00 0.00 0.00 35 1013.3
20260503224548 61 115 1.0 5.0 0.00 0.00 0.00 37 1013.3
20260503224049 61 101 0.0 4.0 0.00 0.00 0.00 34 1013.3
20260503223548 61 100 1.0 4.0 0.00 0.00 0.00 33 1013.4
20260503223051 61 205 0.0 4.0 0.00 0.00 0.00 33 1013.4
20260503222546 61 227 1.0 4.0 0.00 0.00 0.00 32 1013.5
20260503222046 61 104 1.0 4.0 0.00 0.00 0.00 32 1013.5
20260503221545 61 266 1.0 4.0 0.00 0.00 0.00 33 1013.6
20260503221045 61 221 1.0 7.0 0.00 0.00 0.00 34 1013.5
20260503220545 61 227 1.0 7.0 0.00 0.00 0.00 34 1013.5
20260503220044 61 128 0.0 3.0 0.00 0.00 0.00 34 1013.8
20260503215543 61 128 0.0 3.0 0.00 0.00 0.00 35 1013.7
20260503215041 61 306 0.0 5.0 0.00 0.00 0.00 34 1013.7
20260503214541 61 184 0.0 4.0 0.00 0.00 0.00 33 1013.6
20260503214045 61 350 1.0 4.0 0.00 0.00 0.00 33 1013.6
20260503213540 61 355 0.0 3.0 0.00 0.00 0.00 33 1013.6
20260503213057 61 271 0.0 3.0 0.00 0.00 0.00 31 1013.7
20260503212539 61 292 0.0 2.0 0.00 0.00 0.00 32 1013.8
20260503212038 61 279 0.0 3.0 0.00 0.00 0.00 31 1014.1
20260503211537 61 294 1.0 3.0 0.00 0.00 0.00 34 1014.2
20260503211035 61 257 0.0 2.0 0.00 0.00 0.00 33 1014.2
20260503210035 61 254 0.0 5.0 0.00 0.00 0.00 32 1014.4
20260503205535 62 254 1.0 5.0 0.00 0.00 0.00 31 1014.6
20260503205033 62 342 0.0 4.0 0.00 0.00 0.00 38 1014.7
20260503204546 62 181 0.0 2.0 0.00 0.00 0.00 37 1014.5
20260503204033 62 180 0.0 3.0 0.00 0.00 0.00 33 1014.5
20260503203532 62 181 0.0 8.0 0.00 0.00 0.00 32 1014.4
20260503203033 62 257 1.0 8.0 0.00 0.00 0.00 32 1014.4
20260503202532 62 128 1.0 3.0 0.00 0.00 0.00 32 1014.5
20260503202031 62 246 1.0 3.0 0.00 0.00 0.00 32 1014.7
20260503201531 63 111 0.0 6.0 0.00 0.00 0.00 32 1014.7
20260503201030 63 89 1.0 6.0 0.00 0.00 0.00 29 1014.6
20260503200529 64 270 1.0 6.0 0.00 0.00 0.00 31 1014.6
20260503200030 64 280 0.0 2.0 0.00 0.00 0.00 31 1014.6
20260503195529 65 296 0.0 6.0 0.00 0.00 0.00 35 1014.6
20260503195030 65 294 1.0 6.0 0.00 0.00 0.00 31 1015.0
20260503194528 65 322 1.0 3.0 0.00 0.00 0.00 28 1014.8
20260503194028 65 221 1.0 3.0 0.00 0.00 0.00 31 1015.1
20260503193526 66 170 0.0 3.0 0.00 0.00 0.00 29 1015.3
20260503193034 66 233 1.0 3.0 0.00 0.00 0.00 29 1015.5
20260503192525 67 217 1.0 9.0 0.00 0.00 0.00 27 1015.6
20260503192024 66 275 2.0 9.0 0.00 0.00 0.00 32 1015.5
20260503191522 66 338 2.0 5.0 0.00 0.00 0.00 28 1015.7
20260503191023 66 360 1.0 4.0 0.00 0.00 0.00 29 1015.7
20260503190521 65 269 0.0 4.0 0.00 0.00 0.00 28 1015.7
20260503190019 65 268 2.0 6.0 0.00 0.00 0.00 31 1015.8
20260503185519 65 275 1.0 6.0 0.00 0.00 0.00 30 1015.8
20260503185019 64 78 0.0 5.0 0.00 0.00 0.00 33 1016.2
20260503184532 64 82 1.0 7.0 0.00 0.00 0.00 32 1016.2
20260503184017 64 130 1.0 4.0 0.00 0.00 0.00 32 1016.4
20260503183516 64 82 0.0 4.0 0.00 0.00 0.00 32 1016.3
20260503183015 64 89 1.0 4.0 0.00 0.00 0.00 29 1016.4
20260503182515 65 194 0.0 4.0 0.00 0.00 0.00 29 1016.4
20260503182014 65 262 1.0 11.0 0.00 0.00 0.00 29 1016.6
20260503181513 65 271 3.0 11.0 0.00 0.00 0.00 28 1016.6
20260503181013 65 98 0.0 3.0 0.00 0.00 0.00 33 1016.6
20260503180512 65 206 1.0 8.0 0.00 0.00 0.00 31 1016.6
20260503180021 65 227 2.0 8.0 0.00 0.00 0.00 28 1016.7
20260503175511 65 321 1.0 8.0 0.00 0.00 0.00 31 1016.7
20260503175013 65 128 1.0 8.0 0.00 0.00 0.00 30 1016.8
20260503174511 65 23 1.0 5.0 0.00 0.00 0.00 31 1016.8
20260503174012 64 215 2.0 5.0 0.00 0.00 0.00 30 1016.8
20260503173510 64 259 2.0 11.0 0.00 0.00 0.00 29 1016.9
20260503173009 64 136 5.0 11.0 0.00 0.00 0.00 26 1017.0
20260503172512 65 279 1.0 8.0 0.00 0.00 0.00 30 1017.3
20260503172007 65 161 2.0 8.0 0.00 0.00 0.00 27 1017.4
20260503171506 66 140 1.0 3.0 0.00 0.00 0.00 32 1017.5
20260503171005 65 41 1.0 7.0 0.00 0.00 0.00 33 1017.6
20260503170505 65 312 0.0 3.0 0.00 0.00 0.00 33 1017.7
20260503150537 58 262 2.0 6.0 0.00 0.00 0.00 37 1019.0
20260503131003 41 313 1.0 3.0 0.00 0.00 0.00 73 1019.2
20260503130501 41 278 0.0 1.0 0.00 0.00 0.00 74 1019.3
20260503120103 35 11 0.0 0.0 0.00 0.00 0.00 75 1019.1
20260503110541 33 11 0.0 0.0 0.00 0.00 0.00 72 1018.6
20260503081530 34 11 0.0 0.0 0.00 0.00 0.00 71 1017.9
20260503081029 34 11 0.0 0.0 0.00 0.00 0.00 71 1017.8
20260503080529 34 11 0.0 0.0 0.00 0.00 0.00 70 1017.9
20260503072527 34 11 0.0 0.0 0.00 0.00 0.00 70 1017.7
20260503072026 34 11 0.0 0.0 0.00 0.00 0.00 70 1017.8
20260503071526 34 11 0.0 0.0 0.00 0.00 0.00 70 1017.7
20260503071026 34 11 0.0 0.0 0.00 0.00 0.00 70 1017.8
20260503070524 34 11 0.0 0.0 0.00 0.00 0.00 70 1017.8
20260503055017 35 11 0.0 0.0 0.00 0.00 0.00 69 1018.1
20260503054524 35 11 0.0 0.0 0.00 0.00 0.00 68 1018.2
20260503054018 35 11 0.0 0.0 0.00 0.00 0.00 69 1018.1
20260503053516 36 11 0.0 0.0 0.00 0.00 0.00 68 1018.1
20260503053016 36 11 0.0 0.0 0.00 0.00 0.00 68 1018.1
20260503052519 36 11 0.0 0.0 0.00 0.00 0.00 68 1018.2
20260503052015 36 11 0.0 0.0 0.00 0.00 0.00 68 1018.1
20260503051514 36 11 0.0 0.0 0.00 0.00 0.00 68 1018.2
20260503051013 36 11 0.0 0.0 0.00 0.00 0.00 68 1018.2
20260503050513 36 11 0.0 0.0 0.00 0.00 0.00 67 1018.2
20260503050013 36 11 0.0 0.0 0.00 0.00 0.00 67 1018.2
20260503045512 36 11 0.0 0.0 0.00 0.00 0.00 67 1018.2
20260503045012 36 11 0.0 0.0 0.00 0.00 0.00 67 1018.2
20260503044511 37 11 0.0 0.0 0.00 0.00 0.00 66 1018.1
20260503044011 37 11 0.0 0.0 0.00 0.00 0.00 66 1018.2
20260503043510 37 11 0.0 0.0 0.00 0.00 0.00 66 1018.3
20260503043010 37 11 0.0 0.0 0.00 0.00 0.00 66 1018.3
20260503042509 37 11 0.0 0.0 0.00 0.00 0.00 66 1018.1
20260503042009 37 11 0.0 0.0 0.00 0.00 0.00 65 1018.1
20260503041511 37 11 0.0 0.0 0.00 0.00 0.00 65 1018.2
20260503041010 38 11 0.0 0.0 0.00 0.00 0.00 65 1018.1
20260503040507 38 11 0.0 0.0 0.00 0.00 0.00 65 1018.1
20260503040005 38 11 0.0 0.0 0.00 0.00 0.00 65 1018.2
20260503035508 38 11 0.0 0.0 0.00 0.00 0.00 65 1018.1
20260503035006 38 11 0.0 0.0 0.00 0.00 0.00 64 1018.1
20260503034515 38 11 0.0 0.0 0.00 0.00 0.00 64 1018.2
20260503034010 38 11 0.0 0.0 0.00 0.00 0.00 64 1018.2
20260503033506 39 11 0.0 0.0 0.00 0.00 0.00 63 1018.1
20260503033007 39 11 0.0 0.0 0.00 0.00 0.00 63 1018.1
20260503032505 39 11 0.0 0.0 0.00 0.00 0.00 63 1018.2
20260503032004 39 11 0.0 0.0 0.00 0.00 0.00 62 1018.1
20260503031504 40 11 0.0 0.0 0.00 0.00 0.00 62 1018.2
20260503031004 40 11 0.0 0.0 0.00 0.00 0.00 61 1018.1
20260503030504 40 11 0.0 0.0 0.00 0.00 0.00 61 1018.1
20260503030003 40 11 0.0 0.0 0.00 0.00 0.00 60 1018.1
20260503025503 40 11 0.0 0.0 0.00 0.00 0.00 60 1018.2
20260503025003 41 11 0.0 0.0 0.00 0.00 0.00 59 1018.2
20260503024506 41 11 0.0 0.0 0.00 0.00 0.00 59 1018.2
20260503024003 41 11 0.0 0.0 0.00 0.00 0.00 58 1018.2
20260503023501 42 11 0.0 0.0 0.00 0.00 0.00 58 1018.1
20260503023002 42 11 0.0 0.0 0.00 0.00 0.00 57 1018.1
20260503022501 42 11 0.0 0.0 0.00 0.00 0.00 56 1018.0
20260503022003 42 11 0.0 0.0 0.00 0.00 0.00 56 1018.0
20260503021501 43 11 0.0 0.0 0.00 0.00 0.00 56 1018.0
20260503021100 43 11 0.0 0.0 0.00 0.00 0.00 55 1017.9
20260503020600 43 11 0.0 0.0 0.00 0.00 0.00 54 1017.8
20260503020104 44 11 0.0 0.0 0.00 0.00 0.00 54 1017.8
20260503015600 44 11 0.0 0.0 0.00 0.00 0.00 54 1017.8
20260503015059 44 11 0.0 0.0 0.00 0.00 0.00 53 1017.8
20260503014624 45 11 0.0 0.0 0.00 0.00 0.00 52 1017.7
20260503014059 45 11 0.0 0.0 0.00 0.00 0.00 52 1017.7
20260503013558 45 11 0.0 0.0 0.00 0.00 0.00 52 1017.6
20260503013059 45 11 0.0 0.0 0.00 0.00 0.00 51 1017.6
20260503012559 46 11 0.0 0.0 0.00 0.00 0.00 50 1017.5
20260503012058 46 11 0.0 0.0 0.00 0.00 0.00 49 1017.5
20260503011557 46 11 0.0 0.0 0.00 0.00 0.00 49 1017.5
20260503011057 46 11 0.0 0.0 0.00 0.00 0.00 49 1017.3
20260503010558 47 11 0.0 0.0 0.00 0.00 0.00 49 1017.3
20260503010058 47 11 0.0 0.0 0.00 0.00 0.00 48 1017.3
20260503005558 47 11 0.0 0.0 0.00 0.00 0.00 48 1017.3
20260503005100 47 11 0.0 0.0 0.00 0.00 0.00 48 1017.2
20260503004700 48 11 0.0 0.0 0.00 0.00 0.00 47 1017.2
20260503004056 48 11 0.0 1.0 0.00 0.00 0.00 48 1017.1
20260503003556 48 11 0.0 1.0 0.00 0.00 0.00 47 1017.1